Volver al catálogo

CZ-4C R/B

ActivoSSO
NORAD 65816·ROCKET BODY·🇨🇳 China

Lanzado Sep 26, 2025 desde Jiuquan Satellite Launch Center

Loading…

Próximos Pases (próximas 24 horas)

TLE

ActualizadoSource: Space-Track

Época: Sep 14, 2026, 07:04 UTC

1 65816U 25219B   26257.29496974  .00000315  00000-0  81031-4 0  9993
2 65816  98.6780 215.0476 0121493  48.8103 312.3493 14.53161412 51194

Sigue CZ-4C R/B en tiempo real con AllMySat

Download on the App Store